EW8889 Weather Reports


Display with metric or nautical units.
time (UTC)temp
F
wind
direction
speed
MPH
gust
MPH
rain 1hr
in
rain 24hr
in
rain mn
in
humidity
%
barometer
mb
20260503000736 59 98 1.0 5.0 0.01 0.44 0.01 93 1011.9
20260502230730 58 48 1.0 7.0 0.00 0.43 0.00 92 1012.1
20260502220732 58 37 1.0 6.0 0.05 0.43 0.00 92 1012.8
20260502210730 59 321 1.0 14.0 0.39 0.39 0.39 88 1014.3
20260502200731 68 37 2.0 6.0 0.00 0.00 0.00 62 1012.4
20260502193733 70 39 0.0 5.0 0.00 0.00 0.00 59 1012.7
20260502180731 73 51 0.0 7.0 0.00 0.00 0.00 56 1012.7
20260502160733 78 236 2.0 9.0 0.00 0.00 0.00 45 1014.5
20260502160727 79 290 0.0 9.0 0.00 0.00 0.00 44 1013.7
20260502130724 74 194 2.0 8.0 0.00 0.00 0.00 54 1016.2
20260502120725 74 193 2.0 10.0 0.00 0.00 0.00 54 1016.7
20260502113716 73 223 2.0 12.0 0.00 0.00 0.00 54 1017.0
20260502103716 71 184 3.0 10.0 0.00 0.00 0.00 56 1017.6
20260502090712 69 174 2.0 5.0 0.00 0.00 0.00 56 1017.9
20260502070708 59 179 1.0 3.0 0.00 0.00 0.00 59 1017.9
20260502060710 57 179 0.0 5.0 0.00 0.00 0.00 56 1018.0
20260502050659 56 179 1.0 5.0 0.00 0.00 0.00 54 1017.7
20260502040658 53 179 0.0 1.0 0.00 0.00 0.00 56 1017.6
20260502030656 53 179 0.0 2.0 0.00 0.00 0.00 56 1018.0
20260502023654 55 179 0.0 2.0 0.00 0.00 0.00 54 1018.4
20260502010654 56 150 0.0 1.0 0.00 0.00 0.00 52 1018.8